[[{"header":{"parameterUnit":"m.s-1","parameterCategory":1,"la1":30.2992,"la2":30.254,"lo1":-89.0895,"lo2":-89.0443,"dy":0.0025,"dx":0.0025,"nx":19,"ny":19,"refTime":"2026-05-01T21:00:00:Z","depth":0,"parameterNumber":2,"parameterNumberName":"U-component_of_WINDS"},"data":[0,0,0,3.5673,3.5662,3.5074,3.5072,3.4305,3.4299,0,0,0,0,0,0,0,0,0,0,0,3.5877,3.5874,3.5674,3.5661,3.5075,3.5071,3.4306,3.4299,0,0,0,0,0,0,0,0,0,0,0,3.5879,3.5875,3.587,3.5659,3.5075,3.5071,3.4308,3.4747,0,0,0,0,0,0,0,0,0,0,3.5315,3.5545,3.5876,3.587,3.5655,3.5076,3.5071,3.4768,3.4719,3.4577,0,3.4494,0,3.4387,3.425,3.4247,0,0,0,3.5628,3.5586,3.5404,3.587,3.5651,3.5077,3.533,3.474,3.4686,3.4513,3.4482,3.4453,3.4374,3.4245,3.4242,3.3608,3.3607,0,0,3.566,3.578,3.5442,3.537,3.5504,3.5349,3.5312,3.4707,3.4667,3.4479,3.4434,3.4361,3.424,3.4235,3.3609,3.3608,0,0,0,3.5775,3.5804,3.5636,3.5403,3.53,3.5333,3.529,3.4693,3.4631,3.4426,3.4352,3.4236,3.4227,3.3611,3.3609,3.3664,0,0,0,3.5793,3.5871,3.5652,3.5718,3.5313,3.4998,3.5291,3.4673,3.4601,3.4356,3.4236,3.422,3.3613,3.361,3.3666,3.3663,0,0,0,3.5903,3.5883,3.5814,3.5726,3.5483,3.5006,3.4907,3.4655,3.4557,3.4247,3.4218,3.3614,3.361,3.3668,3.3666,3.3527,0,0,0,3.6047,3.586,3.5817,3.5572,3.5489,3.5058,3.491,3.4574,3.4315,3.4232,3.3613,3.3609,3.3669,3.3668,3.353,3.343,3.3405,0,0,3.5875,3.5844,3.5689,3.5633,3.5247,3.5136,3.4737,3.4372,3.4214,3.3808,3.3791,3.3665,3.3666,3.3527,3.3225,3.3206,0,0,0,3.5673,3.5564,3.5434,3.5211,3.4946,3.4704,3.4393,3.4251,3.3906,3.4046,3.3577,3.3573,3.3485,3.3429,3.3413,3.332,3.3593,3.3593,3.3593,3.5594,3.5426,3.5153,3.4911,3.4688,3.4368,3.4158,3.3907,3.3787,3.3677,3.3555,3.3397,3.3338,3.3325,3.3231,3.3493,3.3493,3.3493,3.3493,3.5317,3.513,3.4984,3.4671,3.4476,3.4192,3.386,3.3783,3.3467,3.3478,3.339,3.3412,3.331,3.3216,3.3495,3.3495,3.3495,3.3494,3.3494,3.5242,3.5123,3.4974,3.4624,3.4361,3.4104,3.3814,3.3642,3.3471,3.3388,3.3226,3.3225,3.319,3.3326,3.3325,3.3325,3.3324,3.3324,3.3323,3.5222,3.5052,3.4849,3.4547,3.4372,3.4115,3.3776,3.3584,3.3322,3.3214,3.3212,3.3087,3.3342,3.3405,3.3313,3.3315,3.3316,3.3317,3.3318,3.4994,3.5019,3.4705,3.4532,3.4148,3.3887,3.3674,3.3295,3.3107,3.2961,3.2851,3.3075,3.3017,3.3029,3.3078,3.2907,3.2907,3.2907,3.2907,3.4926,3.4889,3.4522,3.4252,3.3964,3.3737,3.3341,3.3062,3.277,3.2633,3.2632,3.2684,3.2705,3.2633,3.2653,3.2695,3.2431,3.243,3.243,3.4769,3.4694,3.4416,3.4166,3.3848,3.3566,3.3183,3.284,3.251,3.2406,3.2517,3.2537,3.2619,3.2659,3.2559,3.2594,3.2668,0,0]},{"header":{"parameterUnit":"m.s-1","parameterCategory":1,"la1":30.2992,"la2":30.254,"lo1":-89.0895,"lo2":-89.0443,"dy":0.0025,"dx":0.0025,"nx":19,"ny":19,"refTime":"2026-05-01T21:00:00:Z","depth":0,"parameterNumber":3,"parameterNumberName":"V-component_of_WINDS"},"data":[0,0,0,-7.0864,-7.0861,-7.068,-7.0679,-7.0475,-7.0473,0,0,0,0,0,0,0,0,0,0,0,-7.0942,-7.0942,-7.0864,-7.086,-7.0681,-7.0679,-7.0475,-7.0473,0,0,0,0,0,0,0,0,0,0,0,-7.0943,-7.0942,-7.0942,-7.086,-7.0681,-7.0679,-7.0475,-7.06,0,0,0,0,0,0,0,0,0,0,-7.0769,-7.087,-7.0942,-7.0942,-7.0859,-7.0681,-7.0679,-7.0605,-7.0592,-7.057,0,-7.0567,0,-7.0518,-7.0462,-7.0462,0,0,0,-7.0839,-7.0881,-7.081,-7.0942,-7.0857,-7.0681,-7.0755,-7.0597,-7.0583,-7.0553,-7.0564,-7.0555,-7.0514,-7.0461,-7.046,-7.0426,-7.0427,0,0,-7.0849,-7.0922,-7.0821,-7.0802,-7.0842,-7.0761,-7.075,-7.0588,-7.0601,-7.0563,-7.0549,-7.0511,-7.046,-7.0459,-7.0425,-7.0426,0,0,0,-7.0892,-7.093,-7.0862,-7.0811,-7.0778,-7.0757,-7.0744,-7.0608,-7.058,-7.0547,-7.0509,-7.0459,-7.0457,-7.0424,-7.0426,-7.0541,0,0,0,-7.0897,-7.0955,-7.0868,-7.091,-7.0782,-7.0693,-7.0768,-7.0591,-7.0571,-7.051,-7.0459,-7.0455,-7.0423,-7.0425,-7.0536,-7.0583,0,0,0,-7.0945,-7.096,-7.0944,-7.0915,-7.0841,-7.0694,-7.0656,-7.0585,-7.0548,-7.0462,-7.0455,-7.0423,-7.0425,-7.0532,-7.0575,-7.0594,0,0,0,-7.1016,-7.1047,-7.0947,-7.0965,-7.0843,-7.077,-7.0656,-7.0595,-7.0535,-7.0458,-7.0424,-7.0426,-7.053,-7.057,-7.059,-7.0624,-7.0646,0,0,-7.1096,-7.106,-7.1064,-7.0969,-7.0934,-7.0791,-7.0767,-7.0639,-7.0558,-7.0472,-7.047,-7.0538,-7.0574,-7.0593,-7.0744,-7.0762,0,0,0,-7.1113,-7.1118,-7.1092,-7.1042,-7.0949,-7.0869,-7.0738,-7.0688,-7.0612,-7.0533,-7.0548,-7.0567,-7.0575,-7.0587,-7.0603,-7.0602,-7.0435,-7.0435,-7.0435,-7.1331,-7.1232,-7.1231,-7.1109,-7.106,-7.0923,-7.0871,-7.0779,-7.0691,-7.0695,-7.0669,-7.0774,-7.0792,-7.0803,-7.0804,-7.0679,-7.068,-7.068,-7.068,-7.1437,-7.1426,-7.1308,-7.1266,-7.1156,-7.1115,-7.0979,-7.0917,-7.0857,-7.0786,-7.0788,-7.072,-7.0826,-7.0821,-7.0688,-7.0687,-7.0686,-7.0685,-7.0685,-7.1568,-7.1545,-7.1489,-7.1403,-7.1345,-7.1215,-7.1164,-7.1064,-7.0969,-7.0971,-7.0929,-7.0927,-7.0909,-7.0958,-7.0958,-7.0959,-7.0959,-7.0959,-7.0959,-7.1727,-7.1659,-7.1633,-7.1534,-7.1486,-7.1409,-7.1267,-7.1212,-7.1126,-7.1056,-7.1055,-7.0962,-7.0857,-7.0832,-7.0965,-7.0964,-7.0963,-7.0963,-7.0962,-7.187,-7.1821,-7.1782,-7.1734,-7.1606,-7.1551,-7.1425,-7.1322,-7.1262,-7.1237,-7.1142,-7.1082,-7.1035,-7.1022,-7.1,-7.1168,-7.1168,-7.1168,-7.1168,-7.198,-7.1948,-7.1883,-7.1812,-7.173,-7.161,-7.1556,-7.1442,-7.1314,-7.1268,-7.1228,-7.1191,-7.1182,-7.1139,-7.1124,-7.1102,-7.1292,-7.1292,-7.1292,-7.2061,-7.2016,-7.1996,-7.1879,-7.1769,-7.1674,-7.1619,-7.1532,-7.1375,-7.1294,-7.1228,-7.1223,-7.1161,-7.1147,-7.1068,-7.1046,-7.1003,0,0]}]]